Location: Red Bud (historical)
(37.7759°N, 88.4053°W)
Time: 23:09:38
(UTC+00:00)

CZ-4B R/B - Pass Details

Date: 29 October 2020
Orbit: 388 x 461 km, 97.6° (Epoch: 28 November)

Event Time Altitude Azimuth Distance (km) Brightness Sun altitude
Rises 23:21:51 0° 14° (NNE) 2,364 4.8 -5.4°
Reaches altitude 10° 23:23:52 10° 16° (NNE) 1,483 3.7 -5.8°
Maximum altitude 23:27:02 72° 101° (ESE) 427 1.1 -6.4°
Drops below altitude 10° 23:30:05 10° 187° (S) 1,438 4.2 -7.0°
Sets 23:32:01 0° 189° (S) 2,281 5.3 -7.4°
